2024 FT2
ephemeris date magn radius delta ra dec elong phase
Today4 Sep 202631.13.031 AU3.477 AU07h06m+23°55'56.0°16.0°
2024 FT2 - 2026-09-04
astro.vanbuitenen.nl


 
-1 year
-1 month
-1 day
Now
+1 day
+1 month
+1 year

The interactive orbit chart above shows the body's path through the solar system and its position at the given date. Green and blue lines are shown perpendicular to the ecliptic plane: Green if the path is above the ecliptic plane, blue if it is below. (Left-click and drag to rotate the view; Right-click and drag to move the view; Use scroll wheel to zoom in our out.)

The orbital elements of 2024 FT2 are:

            e (Eccentricity)                : 0.5785385
            a (Semimajor axis)              : 2.2042455
            i (Inclination)                 : 1.59937
            Ω (Longitude of ascending node) : 343.79783
            ω (Argument of perihelion)      : 258.41800
            M (Mean anomaly)                : 228.64787
            Epoch                           : 2026 Jun 09

            L (Longitude of perihelion)     : 62.21144
            B (Latitude of perihelion)      : -1.56680
            P (Orbital period in years)     : 3.27            
        

The light curve chart below shows the estimated development of the minor planet's magnitude.


The all-sky chart below shows the path of the minor planet over the same period as the light curve. The current position is marked yellow.





The following chart shows the path of the minor planet in the next few days. The field of view is optimized for (~10x50) binoculars and finderscopes.




Ephemerides:
Date       Time       RA (2000)    DEC (2000)    delta   radius  elong  phase   PA    magn
2026-09-04 00:00 UT   07 06 13.8   +23 55 12     3.477    3.031   56.0   16.0   277   31.1 
2026-09-04 09:29 UT   07 06 42.6   +23 54 32     3.470    3.029   56.3   16.1   277   31.1 
2026-09-05 00:00 UT   07 07 26.7   +23 53 31     3.461    3.027   56.7   16.2   278   31.1 
2026-09-06 00:00 UT   07 08 39.2   +23 51 48     3.444    3.023   57.4   16.3   278   31.1 
2026-09-07 00:00 UT   07 09 51.3   +23 50 04     3.428    3.019   58.1   16.5   278   31.1 
2026-09-08 00:00 UT   07 11 03.0   +23 48 19     3.412    3.016   58.8   16.6   278   31.1 
2026-09-09 00:00 UT   07 12 14.4   +23 46 32     3.395    3.012   59.5   16.7   278   31.1 
2026-09-10 00:00 UT   07 13 25.3   +23 44 45     3.379    3.008   60.2   16.9   278   31.1 
2026-09-11 00:00 UT   07 14 35.8   +23 42 57     3.362    3.004   60.9   17.0   278   31.1 
2026-09-12 00:00 UT   07 15 45.9   +23 41 08     3.346    3.000   61.6   17.2   278   31.1 
2026-09-13 00:00 UT   07 16 55.6   +23 39 17     3.329    2.997   62.3   17.3   278   31.0 
2026-09-14 00:00 UT   07 18 04.8   +23 37 26     3.312    2.993   63.0   17.4   278   31.0 
2026-09-15 00:00 UT   07 19 13.6   +23 35 35     3.295    2.989   63.7   17.6   278   31.0 
2026-09-16 00:00 UT   07 20 21.9   +23 33 42     3.278    2.985   64.4   17.7   279   31.0 
2026-09-17 00:00 UT   07 21 29.7   +23 31 49     3.260    2.981   65.2   17.8   279   31.0 
2026-09-18 00:00 UT   07 22 37.0   +23 29 55     3.243    2.977   65.9   17.9   279   31.0 
2026-09-19 00:00 UT   07 23 43.9   +23 28 01     3.226    2.973   66.6   18.1   279   31.0 
2026-09-20 00:00 UT   07 24 50.2   +23 26 07     3.208    2.969   67.3   18.2   279   31.0 
2026-09-21 00:00 UT   07 25 56.0   +23 24 12     3.191    2.965   68.0   18.3   279   31.0 
2026-09-22 00:00 UT   07 27 01.3   +23 22 16     3.173    2.961   68.8   18.4   279   31.0 
2026-09-23 00:00 UT   07 28 06.1   +23 20 20     3.156    2.957   69.5   18.5   279   30.9 
2026-09-24 00:00 UT   07 29 10.3   +23 18 25     3.138    2.953   70.2   18.6   279   30.9 
2026-09-25 00:00 UT   07 30 14.0   +23 16 28     3.120    2.949   70.9   18.8   279   30.9 
2026-09-26 00:00 UT   07 31 17.1   +23 14 32     3.102    2.945   71.7   18.9   279   30.9 
2026-09-27 00:00 UT   07 32 19.6   +23 12 36     3.084    2.941   72.4   19.0   279   30.9 
2026-09-28 00:00 UT   07 33 21.6   +23 10 40     3.066    2.937   73.2   19.1   280   30.9 
2026-09-29 00:00 UT   07 34 22.9   +23 08 44     3.048    2.933   73.9   19.2   280   30.9 
2026-09-30 00:00 UT   07 35 23.7   +23 06 48     3.030    2.928   74.7   19.3   280   30.9 
2026-10-01 00:00 UT   07 36 23.8   +23 04 52     3.012    2.924   75.4   19.4   280   30.8 
2026-10-02 00:00 UT   07 37 23.3   +23 02 57     2.993    2.920   76.2   19.4   280   30.8 
2026-10-03 00:00 UT   07 38 22.1   +23 01 02     2.975    2.916   76.9   19.5   280   30.8 
2026-10-04 00:00 UT   07 39 20.2   +22 59 08     2.957    2.912   77.7   19.6   280   30.8 


    Terminology:
            
    delta:  distance between minor planet and earth in AU
    radius: distance between minor planet and sun in AU
    magn:   magnitude (brightness) estimate    
    ra:     right ascension in hours (24h = 360deg)
    dec:    declination in degrees
    elong:  elongation in degrees (angle sun-earth-minor planet)    
    phase:  phase angle in degrees (angle sun-minor planet-earth)        
    AU:     Astronomical Unit (mean distance between earth and sun: 149597870.7 km
    

Orbital elements provided by the MPC (Minor Planet Center).
Calculations by a modified version of AAPlus, a C# implementation of the AA+ project by PJ Naughter from the algorithms presented in the book "Astronomical Algorithms" by Jean Meeus.
NGC2000 dso catalog and star labels from VizieR as provided by the Strasbourg astronomical Data Center.
Tycho2 catalog from the ESO archive.